User: anonymous   Login
Location: Howard City Library
(37.4684°N, 96.2639°W)
Time: 19:13:19
(UTC+00:00)
Language:

Cosmos 1707 Rocket - Orbit

View from above orbital plane
View from above orbital plane
View from above satellite
View from above satellite

Ground track
Ground track

The orbit data is extracted from the following two-line orbital elements,

1 16327U 85113B   21169.73521295  .00000083  00000-0  71694-5 0  9993
2 16327  82.5334 164.9985 0018373 200.3714 332.6672 14.83510433897552
Epoch (UTC): 18 June 2021 17:38:42
Eccentricity: 0.0018373
inclination: 82.5334°
perigee height: 605 km
apogee height: 631 km
right ascension of ascending node: 164.9985°
argument of perigee: 200.3714°
revolutions per day: 14.83510433
mean anomaly at epoch: 332.6672°
orbit number at epoch: 89755

The dashed part of the orbit path shows where the satellite is in the earth's shadow,  

DLR